Regional Weather Roundup
Issued by NWS

Home | Current Version | Previous Version | Text Only | Print | Product List | Glossary On
Versions: 1 2 3 4 5 6 7 8 9 10 11 12 13 14 15 16 17 18 19 20 21 22 23 24 25 26 27 28 29 30 31 32 33 34 35 36 37 38 39 40 41 42 43 44 45 46 47 48 49 50
000
ASUS43 KDTX 021410
RWRMI
MICHIGAN HOURLY REGIONAL WEATHER ROUNDUP
NATIONAL WEATHER SERVICE DETROIT/PONTIAC MI
ISSUED BY NATIONAL WEATHER SERVICE GRAND RAPIDS MI
1000 AM EDT WED SEP 02 2015

NOTE: "FAIR" INDICATES FEW OR NO CLOUDS BELOW 12,000 FEET WITH NO
SIGNIFICANT WEATHER AND/OR OBSTRUCTION TO VISIBILITY.

MIZ047>049-052>055-059>063-066>070-074>076-081>083-021500-
SOUTHEAST LOWER MICHIGAN

CITY           SKY/WX    TMP DP  RH WIND       PRES   REMARKS
ADRIAN         PTSUNNY   71  69  93 SW5       30.09S FOG
ALMA           SUNNY     76  73  89 W6        30.04F
ANN ARBOR      LGT RAIN  74  69  85 W6        30.06F
BAD AXE        SUNNY     77  72  84 SW5       30.04S
DETROIT CITY   SUNNY     78  70  76 W8        30.06F
DETROIT        PTSUNNY   79  70  74 W6        30.07S
FLINT          MOSUNNY   80  70  71 SW6       30.04F
GROSSE ILE     MOSUNNY   77  72  83 SW5       30.06S
HILLSDALE      MOSUNNY   75  73  93 W5        30.09S
HOWELL         PTSUNNY   75  69  81 SW6       30.06S

CITY           SKY/WX    TMP DP  RH WIND       PRES   REMARKS
JACKSON        MOSUNNY   72  69  90 SW5       30.07F FOG
LANSING        MOSUNNY   77  70  79 SW8       30.06S
MASON          MOSUNNY   74  69  83 CALM      30.06F
MONROE         MOSUNNY   78  70  76 W6        30.06F
MT. CLEMENS    MOSUNNY   81  72  73 W7        30.04S
PONTIAC        MOSUNNY   77  69  76 SW6       30.05F
PORT HOPE        N/A     78  72  81 VRB7      30.00S
PORT HURON     SUNNY     77  75  94 W5        30.05S
TRI CITIES     SUNNY     78  71  79 SW10      30.03F
YPSILANTI      PTSUNNY   81  70  69 SW5       30.06F
$$
MIZ043>046-050>051-056>058-064>065-071>073-077>080-021500-
SOUTHWEST LOWER MICHIGAN

CITY           SKY/WX    TMP DP  RH WIND       PRES   REMARKS
BATTLE CREEK   SUNNY     78  70  76 SW8       30.07S
BENTON HARBOR  MOSUNNY   78  70  76 SW9       30.07S HAZE
BIG RAPIDS     CLOUDY    74  73  94 CALM      30.04S FOG
COLDWATER      SUNNY     76  71  84 W7        30.08S
HOLLAND        MOSUNNY   78  70  76 W13       30.06R
GRAND RAPIDS   PTSUNNY   79  71  76 W9        30.05F
KALAMAZOO      SUNNY     78  70  76 SW6       30.07F
MARSHALL       SUNNY     77  70  81 W7        30.07S
MOUNT PLEASANT CLOUDY    78  73  84 W8        30.02S
MUSKEGON       MOSUNNY   78  69  73 W10       30.04R
STURGIS        SUNNY     75  72  88 W6        30.08S
$$
MIZ016>042-021500-
NORTHERN LOWER MICHIGAN

CITY           SKY/WX    TMP DP  RH WIND       PRES   REMARKS
ALPENA         MOSUNNY   77  70  79 W6        30.00S
BEAVER ISLAND  PTSUNNY   72  68  87 W3        29.99S
BELLAIRE       MOSUNNY   77  70  81 SW5       29.99S
CADILLAC       FOG       72  71  98 SW7       30.03F VSB 1/4
CHARLEVOIX     PTSUNNY   77  72  84 W6        30.01S
GAYLORD        SUNNY     76  72  87 W6        30.02F FOG
HOUGHTON LAKE  FOG       71  70  96 VRB3      30.03S VSB 1/4
MANISTEE       SUNNY     73  70  88 CALM      30.01F
OSCODA         MOSUNNY   74  72  91 SW5       30.00S FOG
PELLSTON       MOSUNNY   77  71  82 CALM      29.99S
TRAVERSE CITY  PTSUNNY   79  71  76 VRB5      29.98S
LUDINGTON      PTSUNNY   76  72  87 SW6       30.02S FOG
$$
MIZ007>008-015-021500-
EASTERN UPPER MICHIGAN

CITY           SKY/WX    TMP DP  RH WIND       PRES   REMARKS
KINROSS        CLOUDY    70  70 100 N5        29.99S
MACKINAC ISLAN CLOUDY    71  70  96 CALM      29.99S FOG
NEWBERRY       FOG       67  67  99 NE3       29.99S VSB<1/4
S. S. MARIE    CLOUDY    72  68  87 CALM      29.98F FOG
$$
MIZ004>006-011>014-085-021500-
CENTRAL UPPER MICHIGAN

CITY           SKY/WX    TMP DP  RH WIND       PRES   REMARKS
MANISTIQUE     CLOUDY    70  68  93 NE5       29.97F FOG
ESCANABA       PTSUNNY   73  68  83 NE3       29.97R
MENOMINEE      PTSUNNY   75  68  78 W6        29.96F
$$
MIZ001>003-009>011-084-021500-
WESTERN UPPER MICHIGAN

CITY           SKY/WX    TMP DP  RH WIND       PRES   REMARKS
IRON MOUNTAIN  CLOUDY    71  67  87 CALM      29.97F FOG
HOUGHTON       CLOUDY    66  62  87 E7        29.98R
IRONWOOD       CLOUDY    66  64  94 N3        29.95F
$$

ABBREVIATIONS USED IN REMARKS
   TC - TEMPERATURE IN CELSIUS
  WCI - WIND CHILL INDEX
   HX - HEAT INDEX
  VSB - VISIBILITY




USA.gov is the U.S. government's official web portal to all federal, state and local government web resources and services.